ECMWFNIL_850_spd_111.txt.gz
Wind_Speed
17 17 17 17 17 17 18 17 16 15 13 9 4 7 9 6 4 5 5 4 4 3 2 2 1 2 2 1 2 3 4 4 5 7 7 8 10 11 12 13 13 12
19 18 18 19 18 18 19 18 17 15 12 6 8 9 7 5 4 5 5 4 4 3 3 2 2 2 2 2 3 3 4 4 6 8 8 9 10 10 12 13 11 10
20 20 19 20 20 19 19 18 15 12 7 9 11 7 6 6 6 5 5 5 4 4 3 2 2 2 2 2 3 3 4 5 7 9 9 9 10 11 12 10 9 10
19 20 20 20 20 20 18 14 10 9 11 12 9 7 7 7 7 6 5 4 4 4 3 2 2 2 3 3 3 4 5 6 8 8 8 9 10 11 10 7 7 10
16 16 16 15 14 14 13 12 13 14 13 12 9 8 8 8 7 6 5 4 3 3 3 3 3 3 4 4 4 5 6 7 8 8 8 9 10 10 8 7 9 12
15 14 12 10 10 12 14 15 14 13 13 12 10 10 9 7 6 5 4 3 2 2 3 3 3 4 5 6 6 7 7 8 9 9 9 10 10 9 9 9 11 14
14 14 13 14 16 17 16 15 13 13 13 12 11 10 8 7 6 5 4 3 3 3 3 4 4 4 5 7 9 10 10 10 11 10 9 11 11 11 11 11 12 15
15 15 15 15 16 16 15 14 13 14 14 13 12 11 8 7 6 5 5 4 4 4 5 5 5 5 5 6 9 11 12 12 12 11 11 13 13 13 14 14 14 17
17 17 16 15 15 15 14 14 14 14 13 12 12 11 9 7 5 6 6 5 5 6 6 6 6 6 5 6 9 11 13 13 11 11 12 14 15 14 14 15 17 19
19 18 17 15 16 17 16 16 15 14 13 12 11 10 9 7 6 7 7 6 7 7 7 8 8 8 6 5 8 12 13 12 10 10 12 13 13 12 13 17 20 21
20 19 18 17 18 19 18 17 16 16 15 14 12 10 9 9 8 8 8 7 8 8 8 9 9 9 8 7 9 11 13 12 10 11 12 12 11 11 14 19 21 21
20 20 20 20 20 19 18 17 16 16 16 15 13 10 8 10 10 10 9 9 9 9 9 10 10 11 10 8 9 10 11 12 11 10 12 11 10 13 17 20 21 22
20 21 21 21 21 20 19 18 16 15 15 14 13 10 9 11 11 10 10 10 10 10 10 11 11 11 10 9 9 9 10 12 12 11 12 11 12 15 19 21 23 24
22 23 22 22 21 20 19 18 18 17 16 14 12 10 11 12 11 11 11 11 11 11 11 12 12 12 11 9 9 9 9 11 13 13 13 12 14 19 19 21 24 25
23 23 22 21 20 19 19 19 19 19 18 16 13 11 12 13 12 12 12 12 12 12 12 12 12 12 12 10 9 9 9 12 14 14 13 13 15 20 20 20 25 26
23 23 21 20 20 19 19 20 20 20 19 18 15 12 12 13 12 12 13 12 12 12 12 12 13 13 12 10 9 9 10 13 14 13 14 14 14 18 19 20 24 25
23 22 21 20 20 19 19 19 20 20 19 18 15 12 13 14 12 12 13 13 12 12 12 13 14 14 12 10 10 10 11 13 14 14 15 14 11 15 18 18 22 24
22 22 21 21 20 19 18 17 18 18 18 17 15 13 13 14 13 12 13 13 12 12 12 14 14 13 12 10 10 11 12 13 15 15 15 13 9 12 15 16 21 25
22 22 21 20 18 17 16 16 16 17 17 16 15 13 12 13 14 13 13 13 12 12 12 13 14 14 12 11 10 11 12 13 14 12 13 12 9 10 13 15 20 24
21 20 19 18 17 17 16 16 16 16 16 15 14 13 11 11 13 14 13 13 12 12 12 13 14 14 13 11 10 9 9 10 11 9 8 8 8 10 12 16 20 22
18 18 18 19 19 19 19 19 18 17 17 15 14 13 11 10 12 13 13 12 12 12 12 13 14 14 13 12 11 9 8 7 8 8 7 5 7 9 10 15 20 21
19 20 21 21 21 21 21 20 19 18 17 16 15 14 12 11 12 13 13 12 12 12 12 13 14 14 13 12 11 10 9 7 7 7 6 4 5 8 9 13 18 19
23 24 24 23 23 22 21 21 20 18 17 16 16 15 15 14 14 14 13 12 12 12 12 13 14 14 14 13 11 10 9 8 8 7 6 5 4 7 10 12 15 18
24 23 23 23 23 22 22 21 20 19 18 17 16 16 16 15 15 15 15 13 13 13 13 14 14 14 14 13 12 11 10 9 9 6 5 5 3 3 7 9 12 15
23 22 22 23 23 23 22 21 20 19 18 17 16 16 16 16 15 15 15 14 14 15 14 13 14 14 14 14 13 11 11 10 10 8 6 5 3 3 6 8 9 13
23 23 23 24 24 24 23 21 19 17 16 15 14 15 16 16 15 15 15 15 15 15 14 13 13 13 14 14 13 12 11 11 10 10 9 7 7 8 11 13 15 17

ECMWFNIL_850_spd_117.txt.gz
Wind_Speed
20 20 19 18 17 16 15 15 14 14 14 13 12 11 8 5 4 3 2 1 1 2 3 4 4 4 5 5 6 7 7 7 8 8 8 9 10 10 11 12 12 13
20 20 19 18 17 17 16 15 14 14 13 12 11 9 6 4 3 2 1 0 1 2 3 4 4 5 5 5 6 6 6 7 7 7 8 9 9 10 10 11 12 12
21 20 19 18 17 16 16 14 14 13 12 12 11 8 5 4 3 2 1 0 1 3 3 4 4 5 5 5 5 5 6 6 7 8 8 8 9 9 10 11 12 13
21 20 19 17 16 15 14 14 13 14 14 13 11 7 4 4 3 2 1 1 2 3 3 4 4 4 4 4 4 5 5 6 8 8 8 7 8 9 10 11 12 13
20 19 18 17 16 15 14 13 14 15 15 13 10 6 4 3 2 2 1 1 2 2 2 3 3 3 3 3 4 4 5 6 8 7 6 7 9 10 11 11 12 13
20 18 17 17 16 15 14 14 15 16 15 13 9 6 5 3 3 3 3 2 1 1 2 2 3 2 2 2 3 3 4 6 8 6 6 8 10 10 11 12 13 13
19 19 17 17 16 15 16 17 17 16 15 12 9 7 5 5 5 4 3 2 0 0 1 2 2 2 2 2 3 3 5 7 7 6 7 9 10 10 12 12 12 12
19 19 18 18 18 18 18 18 18 16 14 10 9 8 7 7 6 4 3 2 1 1 2 2 2 2 2 2 3 4 5 7 7 7 7 9 9 10 11 11 11 12
20 20 20 20 20 20 20 19 18 15 12 11 9 8 8 8 6 4 3 3 3 3 3 3 3 2 2 2 3 4 5 6 7 7 7 8 9 10 11 11 12 13
21 20 20 20 21 21 20 18 16 14 12 10 8 8 8 7 6 5 4 4 4 4 4 4 3 3 2 2 3 4 5 5 6 7 7 8 9 10 11 12 13 15
19 19 19 19 19 19 17 16 15 14 12 9 7 7 7 7 7 6 6 6 5 5 5 5 4 3 2 2 3 4 5 4 4 5 6 7 9 11 13 15 15 16
17 17 17 18 18 18 17 16 15 12 10 8 8 6 6 7 7 7 7 7 6 6 6 5 4 3 2 2 3 4 4 4 4 4 5 7 10 13 15 16 16 16
17 18 18 18 17 17 16 15 13 11 9 8 8 7 7 7 8 8 8 7 7 7 6 5 4 3 2 2 3 4 4 4 4 5 6 8 10 13 15 16 17 16
19 18 18 17 16 16 15 14 13 11 9 8 7 8 8 8 8 8 8 8 8 7 7 6 5 3 2 2 3 4 4 4 5 5 6 8 10 12 14 16 16 15
18 18 17 17 16 16 16 15 13 12 10 9 8 8 9 9 9 8 8 8 8 8 7 6 5 4 3 2 2 4 4 4 4 5 6 8 9 11 13 15 15 14
18 17 17 18 18 17 17 16 14 13 11 9 8 9 10 10 10 10 9 8 8 8 7 6 5 4 4 3 2 3 4 5 5 5 6 7 8 10 12 13 14 13
18 18 18 19 19 18 17 16 15 13 12 10 9 10 11 11 10 10 10 9 8 7 7 7 6 5 4 3 3 3 4 5 5 5 5 6 7 8 11 12 12 12
20 19 20 20 19 18 17 16 15 13 11 10 11 12 12 11 11 10 10 10 9 8 8 7 6 5 5 4 4 3 3 5 5 5 5 5 6 8 10 10 10 9
21 21 21 21 20 19 18 17 15 13 11 11 12 13 13 12 11 11 11 10 9 8 8 7 7 6 6 5 4 3 2 3 4 4 4 4 5 7 9 9 8 7
21 22 22 22 21 20 19 17 16 14 12 12 13 13 13 13 12 12 11 11 10 9 8 8 8 7 7 5 4 3 2 3 3 3 3 4 5 7 9 8 7 6
22 22 22 22 21 20 19 18 16 15 13 13 14 14 13 13 13 12 12 11 10 9 9 8 8 8 7 5 4 3 2 2 2 1 2 3 5 7 8 6 6 7
23 24 24 23 22 21 20 18 17 15 13 13 14 14 14 14 13 13 12 12 11 10 9 8 8 8 7 6 4 2 2 2 1 1 1 3 4 6 5 5 7 9
25 25 25 24 24 22 20 19 19 17 14 13 14 15 15 14 14 13 12 11 11 10 8 7 7 7 7 6 4 2 1 1 1 0 1 2 3 3 3 5 8 9
25 26 25 25 24 22 20 21 20 18 15 13 13 14 15 14 14 14 13 12 11 10 9 7 7 7 7 6 5 3 2 0 0 1 1 2 2 1 3 6 7 8
25 25 25 25 24 22 21 21 21 18 16 14 14 14 15 15 15 14 13 12 11 10 9 8 7 7 7 7 6 4 2 2 1 1 1 1 0 1 3 5 6 7
24 24 23 23 23 22 21 21 20 19 17 16 16 16 16 16 15 14 13 13 12 11 10 9 8 7 7 6 6 5 3 3 3 2 1 1 2 1 2 3 5 7

ECMWFNIL_850_spd_120.txt.gz
Wind_Speed
14 15 14 13 14 13 12 12 12 11 9 8 7 8 9 8 5 2 2 2 2 2 3 3 4 5 6 6 7 7 9 10 11 12 13 13 15 15 16 16 16 17
13 13 13 12 13 13 13 13 11 9 8 6 6 9 10 6 3 3 3 3 3 3 3 4 4 5 5 6 7 8 10 10 11 13 13 13 14 14 15 16 16 16
12 12 12 12 12 13 14 12 10 9 7 7 9 11 9 4 3 4 4 3 3 3 4 4 4 5 6 7 8 8 9 10 12 13 12 13 13 13 14 15 15 15
13 13 13 13 13 13 13 11 9 8 8 10 12 11 6 3 4 5 5 5 4 4 4 4 5 5 6 7 7 8 10 11 13 13 12 12 13 13 14 14 14 15
14 14 14 15 15 14 12 10 9 8 9 12 13 9 4 4 5 5 6 5 5 4 4 5 5 5 6 7 8 9 10 11 12 12 11 11 12 12 13 14 14 15
16 17 17 17 16 14 12 10 10 10 10 12 11 7 4 6 6 6 6 5 5 5 5 5 4 5 7 8 9 10 10 11 11 10 9 10 11 12 13 14 14 15
18 19 18 17 16 14 12 11 10 10 11 11 10 5 6 7 7 7 6 5 5 5 4 4 4 6 8 9 9 9 9 9 9 8 9 10 11 12 13 14 15 15
19 19 18 18 16 15 13 11 11 11 11 11 8 6 8 7 7 7 7 5 4 4 4 4 5 7 8 8 8 8 8 8 9 9 10 11 11 13 14 14 14 15
19 19 18 17 16 14 12 11 11 11 11 10 7 7 8 7 7 7 6 5 4 4 4 5 6 7 7 7 7 7 7 8 9 9 10 11 12 13 13 13 13 14
19 18 18 17 15 13 12 12 12 11 11 8 6 8 8 8 8 7 6 5 4 4 5 5 6 6 7 6 6 7 7 8 9 10 10 11 11 12 12 12 13 14
19 18 18 16 15 14 13 13 13 12 10 7 7 7 7 8 7 7 7 6 5 5 5 5 5 6 6 7 7 7 7 8 8 9 9 10 11 11 12 13 14 14
20 19 18 17 16 15 14 14 12 11 9 9 8 8 8 8 8 8 8 7 7 6 5 5 5 6 6 7 7 7 7 7 7 7 8 9 10 11 12 13 14 15
21 20 19 17 16 15 14 13 12 11 10 9 9 9 8 9 9 9 9 8 7 7 6 5 5 6 6 7 7 7 7 7 6 6 7 9 10 11 12 13 14 15
19 17 16 15 14 14 14 13 12 11 10 10 9 9 9 10 9 9 10 9 8 7 6 5 5 6 6 7 7 7 6 5 5 5 7 9 10 12 12 13 14 15
14 14 14 14 14 14 14 13 12 10 10 9 10 10 11 11 10 10 10 9 8 8 7 6 6 5 6 7 7 6 5 3 3 5 7 9 10 11 12 13 13 13
14 15 15 15 14 13 13 12 11 10 10 9 10 11 11 11 11 11 9 8 8 7 7 6 6 5 6 7 7 6 5 4 4 6 8 9 9 11 12 13 13 12
16 16 16 15 13 13 12 11 10 10 9 8 10 11 11 11 11 10 10 8 7 7 6 6 5 5 5 6 7 6 5 5 5 7 9 9 9 11 12 13 12 11
18 17 15 14 13 12 11 10 10 9 9 8 9 11 11 11 10 10 9 9 8 7 6 5 5 5 5 6 6 6 6 6 7 8 8 9 9 11 12 12 12 11
18 17 15 14 13 13 12 11 10 9 8 7 8 10 11 11 11 10 9 8 8 7 6 5 5 5 5 6 5 6 6 6 6 7 8 8 9 10 11 11 11 10
19 17 15 14 14 14 13 12 10 9 8 7 9 10 10 11 10 10 9 9 8 7 6 5 5 5 5 6 5 5 5 5 5 6 7 8 8 9 9 10 10 10
19 17 15 15 15 15 14 11 9 8 8 8 9 10 10 11 10 9 9 9 8 8 6 6 6 6 6 6 5 5 5 5 5 5 6 7 7 7 8 8 8 10
19 18 16 17 18 17 15 13 10 9 9 9 11 11 11 11 10 10 9 9 9 8 8 7 7 7 7 6 6 5 4 4 4 4 5 5 6 6 7 7 8 10
19 20 18 19 20 18 17 15 12 11 11 10 11 12 12 11 11 11 10 9 9 9 8 8 7 7 7 6 6 5 5 4 4 4 4 4 4 5 6 6 8 10
20 21 19 19 19 17 16 14 12 12 11 10 10 11 12 12 12 11 11 11 10 10 9 9 7 7 6 6 6 6 5 5 4 3 2 2 3 4 5 6 8 9
21 20 19 19 18 16 15 13 12 12 12 10 10 11 11 12 12 12 13 13 12 12 11 10 8 7 6 6 6 6 6 6 5 3 2 1 2 3 4 5 6 8
21 20 19 19 18 16 15 14 13 14 13 12 12 12 12 12 13 14 14 14 14 12 11 10 9 7 6 6 6 6 6 6 5 4 2 1 1 2 3 4 5 6

ECMWFNIL_850_spd_123.txt.gz
Wind_Speed
13 13 14 16 14 9 6 7 7 6 6 5 3 5 8 9 6 1 3 4 5 5 5 5 5 5 6 7 8 8 9 9 11 13 13 14 16 17 19 19 20 19
14 15 16 16 14 10 8 9 8 8 7 4 4 6 9 9 3 3 5 5 5 5 5 5 5 6 7 8 8 8 9 11 13 13 13 15 17 18 19 19 18 18
16 15 17 16 12 9 10 12 10 10 7 4 5 8 11 6 2 6 7 7 6 6 6 6 6 7 7 8 8 9 11 13 14 13 14 16 17 18 18 18 17 18
17 16 17 15 11 10 11 12 12 10 5 3 6 10 10 2 6 7 8 8 7 6 6 6 7 7 8 9 9 10 12 14 14 13 14 16 17 17 17 17 17 17
17 16 16 14 13 13 13 12 12 8 4 3 7 11 7 4 8 8 9 8 7 6 6 7 7 8 9 10 10 10 12 14 14 13 14 15 15 15 16 16 16 17
15 16 16 16 14 13 12 13 11 7 3 4 9 10 2 7 9 10 10 9 8 7 7 7 8 9 10 10 10 11 13 14 14 13 13 14 14 15 16 16 16 18
13 15 16 15 14 14 14 12 9 5 3 5 9 7 3 9 11 11 10 9 9 8 8 8 9 10 11 10 9 11 13 13 13 12 12 13 14 15 16 16 17 19
12 15 18 17 16 16 13 10 7 5 3 6 9 3 7 10 11 12 11 10 9 8 9 9 9 10 10 9 9 10 12 12 12 11 11 13 14 15 16 16 17 18
11 15 19 19 17 14 11 9 7 5 3 7 7 4 10 12 12 12 11 10 9 9 9 9 9 10 10 10 9 10 11 11 11 11 12 13 14 16 16 17 17 17
13 15 19 18 16 13 12 10 7 4 5 7 4 7 11 13 13 12 11 11 10 9 9 9 9 9 10 10 10 10 9 10 10 11 12 13 14 16 16 16 16 16
16 18 19 17 15 13 11 8 6 5 6 5 5 9 11 13 14 13 12 11 9 9 9 8 8 9 9 10 10 9 9 9 10 11 12 13 14 15 15 15 15 16
19 18 17 15 14 12 10 8 7 7 6 5 9 10 12 13 13 13 13 11 10 9 8 8 9 9 9 9 9 9 8 9 10 11 11 13 14 14 14 14 15 16
18 16 15 14 13 12 10 10 9 8 6 9 11 11 12 13 13 13 13 12 10 10 8 8 9 9 9 9 9 9 8 9 10 10 11 12 13 13 14 14 15 16
16 15 15 14 13 12 12 11 10 9 9 11 12 13 13 13 13 14 14 13 11 10 9 9 8 9 9 9 9 9 9 9 9 10 11 11 12 13 14 14 15 15
17 16 16 15 14 13 13 11 11 11 12 13 13 14 14 14 14 13 13 13 12 11 10 9 9 9 9 9 8 8 8 9 9 10 10 11 12 13 13 14 14 14
18 17 16 16 15 14 14 14 13 13 13 14 14 14 14 14 14 14 13 13 12 11 11 10 10 9 10 9 8 8 9 9 9 10 11 11 12 13 13 13 13 13
16 16 15 15 15 15 15 15 14 14 14 14 15 16 15 15 15 15 14 13 12 11 10 10 10 10 10 10 9 9 9 9 9 9 10 11 12 13 13 13 13 13
14 15 16 17 17 17 17 16 15 15 15 15 16 16 16 16 16 15 14 13 12 11 10 10 11 11 11 10 9 10 10 10 9 9 10 11 12 12 13 13 12 13
15 17 18 19 19 18 17 16 16 16 15 15 16 17 16 16 16 15 15 14 13 12 11 11 11 12 11 10 10 10 10 10 9 8 9 10 11 11 12 12 12 12
17 17 18 19 19 19 18 17 17 17 16 16 17 17 16 16 16 16 15 14 13 12 11 11 12 12 12 11 10 10 10 9 8 7 8 9 10 10 11 11 11 11
17 18 19 20 20 19 18 17 17 17 16 17 17 18 17 16 15 15 15 14 13 13 12 12 12 12 12 11 10 10 10 9 8 7 7 8 9 9 10 10 10 10
18 19 20 20 20 20 19 19 19 18 17 17 18 20 20 18 16 16 15 14 14 14 13 12 11 12 12 11 11 10 9 9 8 7 7 7 8 8 8 8 9 10
20 20 20 20 21 21 20 20 19 19 19 19 20 21 21 19 18 16 15 15 14 14 13 12 12 12 12 12 11 11 10 9 8 7 7 7 7 7 7 7 8 10
20 19 19 20 21 20 19 19 20 20 19 19 20 20 18 18 17 16 16 15 15 14 13 12 12 12 12 12 12 11 11 10 8 7 6 6 6 6 6 7 8 9
21 20 19 20 20 19 19 20 21 20 19 18 19 17 17 18 17 17 17 16 16 15 14 13 12 12 12 13 13 12 12 11 9 8 7 6 6 5 5 6 7 9
21 20 20 21 20 18 20 21 21 20 19 18 18 18 18 17 18 17 17 17 17 16 15 15 14 13 13 13 13 13 12 11 10 8 7 7 6 5 5 5 7 8

ECMWFNIL_850_spd_129.txt.gz
Wind_Speed
18 18 17 18 20 19 20 20 17 17 16 12 11 10 8 5 4 6 7 9 12 14 13 13 11 10 10 11 12 13 13 14 14 14 14 14 13 12 11 12 13 13
18 18 17 19 20 19 21 21 19 17 15 13 12 10 7 4 4 6 8 11 14 14 13 12 11 11 12 13 14 14 15 15 15 15 15 14 13 12 12 13 13 13
19 18 19 20 19 19 21 21 19 17 15 14 12 10 7 4 4 7 10 13 14 14 13 12 12 13 14 15 15 15 16 15 15 15 14 14 13 13 13 13 13 13
19 19 21 20 19 20 21 20 18 16 15 14 12 9 6 4 5 9 13 14 15 14 13 13 13 15 16 16 16 16 16 16 15 15 14 14 14 14 14 13 13 14
20 22 23 21 21 22 21 19 18 16 16 14 11 8 4 3 7 13 16 16 15 13 13 14 15 16 17 17 17 17 17 16 16 15 14 14 14 14 14 13 13 14
22 24 24 22 23 23 21 20 18 17 16 13 10 7 4 5 11 15 16 16 15 13 14 15 17 18 18 18 17 17 17 17 16 15 14 15 15 15 15 14 13 14
24 25 24 23 24 23 22 21 18 17 16 12 8 6 5 9 14 16 16 16 15 14 15 16 18 18 18 18 18 18 18 17 16 16 15 15 15 15 15 15 13 13
26 27 26 26 26 24 23 20 19 18 15 10 8 6 7 11 15 16 16 16 15 15 15 17 18 18 19 18 18 18 18 18 17 16 15 15 15 14 15 15 13 13
28 28 28 28 27 24 22 21 20 18 14 10 7 6 8 12 16 16 16 16 15 16 17 18 19 19 19 18 18 18 18 18 17 16 16 15 14 13 13 14 13 13
28 29 29 28 26 24 23 22 20 18 13 9 8 8 10 14 16 16 17 16 16 17 18 19 20 19 19 19 18 18 17 17 17 16 15 13 12 12 12 12 12 11
29 30 29 27 25 24 24 22 20 18 13 9 8 8 11 16 17 17 17 17 17 19 19 20 20 19 20 20 19 19 18 17 16 15 14 13 13 13 12 11 11 10
28 29 27 26 25 25 24 22 20 18 14 9 7 8 12 17 19 18 18 17 18 18 18 19 20 20 20 20 20 20 19 18 17 15 14 14 14 13 12 11 10 10
27 27 26 26 26 26 25 22 20 19 15 10 8 9 14 19 19 18 18 18 18 18 18 19 20 20 20 20 19 19 19 18 17 16 15 15 14 13 12 10 10 10
27 26 25 25 25 25 24 23 21 18 15 11 9 11 17 20 19 20 19 19 19 19 18 20 20 20 19 19 19 19 19 18 17 17 16 15 14 13 11 10 10 11
28 26 25 25 24 24 24 23 22 18 15 12 11 14 19 20 20 21 20 19 20 20 20 21 21 20 19 19 19 19 19 18 17 17 16 15 13 12 11 10 10 10
27 26 26 25 25 25 24 24 22 18 14 12 13 17 20 21 21 21 20 20 20 20 22 22 22 22 21 20 19 19 20 19 18 17 16 14 12 12 10 9 10 9
26 24 25 25 26 26 24 24 22 18 13 12 15 19 21 22 22 21 21 21 20 21 22 22 23 24 24 23 21 20 20 20 19 17 15 14 12 11 10 9 9 8
25 23 23 24 26 26 24 24 22 17 13 14 18 21 22 22 22 21 21 21 20 20 22 22 23 24 23 22 21 21 22 21 19 17 15 13 11 10 9 9 8 8
24 23 23 25 26 25 24 23 20 15 14 15 18 21 23 23 22 21 21 21 20 20 20 21 23 23 22 21 20 21 22 20 17 16 14 11 11 11 10 9 8 6
24 24 24 24 24 24 23 21 17 15 16 17 17 21 24 24 23 21 21 21 20 21 23 23 22 22 22 21 20 21 22 20 16 14 13 12 12 12 12 12 9 6
24 24 24 24 24 24 22 19 16 16 18 17 17 21 25 24 23 22 21 22 23 24 25 24 22 22 23 22 22 22 22 21 17 15 14 14 15 14 14 15 14 11
25 25 23 23 24 23 21 19 18 19 19 17 18 22 24 23 22 23 24 26 27 27 25 24 23 23 23 23 24 24 23 21 18 15 13 14 15 15 13 13 13 11
23 22 20 20 21 21 21 21 21 21 20 18 20 24 25 24 25 26 27 28 28 27 25 24 24 24 23 23 24 25 25 21 16 13 11 11 14 15 12 12 14 12
21 21 21 21 22 23 23 23 23 22 20 20 21 24 25 27 29 28 25 25 26 26 24 24 24 24 24 24 24 25 25 21 14 10 11 11 13 14 10 11 15 13
21 23 24 24 25 24 24 24 22 20 19 19 20 21 24 27 28 26 24 24 26 26 25 23 23 24 24 24 25 25 25 22 16 10 11 11 12 13 11 11 12 12
25 26 26 27 27 27 27 28 25 23 22 22 22 22 24 26 26 25 26 28 27 26 25 22 21 24 25 24 25 25 25 24 18 11 11 12 12 12 11 11 11 11

ECMWFNIL_850_spd_132.txt.gz
Wind_Speed
21 20 20 20 20 20 21 20 19 20 17 16 15 13 11 10 9 10 12 10 9 11 10 9 9 8 8 8 9 10 11 11 12 12 12 11 10 9 9 9 8 8
20 19 19 21 22 21 21 19 19 20 18 16 15 14 12 10 8 10 12 11 9 10 10 9 9 8 9 10 10 11 12 13 13 13 12 11 10 10 9 9 9 8
20 19 20 22 23 22 21 20 20 20 18 17 16 14 11 8 7 8 8 8 10 11 10 10 9 10 11 12 12 13 14 14 14 13 13 12 11 10 10 9 9 9
21 22 22 22 21 21 21 22 22 20 19 18 16 13 10 7 6 6 6 8 12 12 11 11 11 12 12 13 14 15 15 14 14 13 12 11 11 11 10 9 9 10
23 23 23 21 20 20 22 23 22 21 20 18 15 12 10 7 6 7 9 12 13 13 13 13 13 13 14 15 15 15 15 15 14 13 12 12 12 11 11 10 11 11
23 22 22 21 21 22 23 23 23 23 21 18 15 12 9 7 7 9 12 15 15 14 14 13 14 15 15 16 16 16 16 15 14 13 12 12 12 12 11 10 10 12
23 22 22 23 23 23 24 25 24 22 20 17 14 11 9 9 8 9 13 15 15 15 14 14 14 16 17 17 17 17 17 16 15 14 13 13 13 12 12 12 11 12
24 23 24 25 25 26 27 26 23 20 18 16 14 12 11 9 8 11 15 16 16 15 15 15 16 17 19 19 19 18 18 17 16 15 14 13 13 12 12 12 12 12
25 24 24 26 27 29 29 26 22 19 18 17 15 12 11 8 9 13 16 16 16 16 16 16 17 19 20 20 20 19 19 18 17 15 14 13 13 12 12 12 12 11
26 26 26 28 30 30 27 24 22 20 20 18 14 12 10 9 11 14 16 17 17 16 17 17 19 21 21 21 20 20 19 18 17 15 14 14 13 13 13 12 12 11
26 27 28 29 29 28 26 23 22 21 20 17 13 12 11 11 13 16 17 18 17 17 18 19 21 22 21 21 21 20 19 18 17 16 16 15 15 14 13 12 11 11
27 28 30 30 29 28 26 24 22 21 20 16 13 13 12 12 15 17 18 18 17 17 18 20 21 22 21 21 21 21 19 18 18 18 17 16 15 15 14 13 12 11
29 29 30 31 30 29 28 26 24 22 20 17 15 14 12 13 17 19 19 18 18 18 19 20 22 22 22 23 22 21 20 19 19 18 17 16 15 15 14 13 13 13
30 30 31 32 32 30 29 27 25 22 20 18 16 14 12 14 18 19 19 18 18 19 19 21 22 23 23 23 23 23 21 20 19 18 17 17 16 15 14 13 13 12
30 31 31 32 31 30 29 27 25 24 23 19 15 14 13 15 19 20 19 19 19 19 20 21 23 23 23 24 24 23 22 20 19 18 17 17 17 15 15 14 12 10
30 32 31 31 31 29 29 28 26 26 26 21 16 14 14 17 19 20 20 21 21 21 21 22 23 23 23 23 23 23 22 20 19 18 17 17 16 16 15 14 12 11
29 31 31 31 31 31 30 29 28 27 25 22 18 16 15 18 21 21 21 21 22 22 23 23 24 24 24 24 24 23 22 21 19 18 17 17 16 16 15 13 12 12
30 32 33 32 32 32 31 30 29 28 25 22 19 17 17 20 22 22 21 22 22 23 24 25 26 26 26 26 25 24 23 22 19 18 18 17 15 14 14 13 13 13
31 32 32 32 32 32 32 31 30 28 24 21 19 18 19 22 23 22 22 23 23 23 24 26 27 27 27 27 26 24 23 21 20 20 20 17 15 13 12 12 13 13
29 30 30 31 31 32 32 31 30 28 23 20 18 19 22 24 24 24 24 23 23 24 25 27 27 27 28 27 25 24 23 22 21 21 20 17 15 12 11 12 12 11
29 29 29 28 29 31 32 31 30 27 23 19 18 20 23 25 25 25 24 24 24 25 26 27 27 26 27 26 25 23 23 23 22 21 18 17 16 15 14 12 11 9
30 29 28 28 29 32 32 31 30 28 23 19 19 20 22 24 25 25 25 24 25 26 28 27 26 26 26 26 25 23 23 24 22 21 19 19 19 19 17 16 14 12
32 30 28 28 29 31 31 30 29 27 22 21 22 22 22 23 24 25 25 25 26 29 29 27 25 25 26 26 26 25 25 25 23 21 20 19 19 19 18 16 17 16
32 30 28 29 29 29 30 28 25 23 22 23 24 23 22 22 23 24 25 26 28 31 29 26 25 25 26 27 27 26 27 27 23 19 17 16 17 18 16 14 17 17
32 30 30 29 28 28 30 26 21 21 24 25 23 22 22 22 23 24 25 27 29 30 28 25 24 26 26 26 27 27 27 27 23 17 13 13 14 15 15 14 16 17
32 31 29 27 26 26 27 24 21 23 25 24 22 21 21 22 23 24 24 26 27 26 25 25 25 26 27 26 27 27 27 27 24 18 12 12 13 13 14 15 16 15